TimeCST,TemperatureF,Dew PointF,Humidity,Sea Level PressureIn,VisibilityMPH,Wind Direction,Wind SpeedMPH,Gust SpeedMPH,PrecipitationIn,Events,Conditions,WindDirDegrees,DateUTC
12:53 AM,1.9,-2.0,83,30.32,10.0,SW,4.6,-,N/A,,Clear,220,2013-01-14 06:53:00
1:53 AM,1.9,-2.0,83,30.32,10.0,SW,5.8,-,N/A,,Clear,230,2013-01-14 07:53:00
2:53 AM,1.0,-4.0,79,30.34,10.0,West,3.5,-,N/A,,Clear,270,2013-01-14 08:53:00
3:53 AM,1.9,-2.9,80,30.35,10.0,West,6.9,-,N/A,,Clear,280,2013-01-14 09:53:00
4:53 AM,1.0,-4.0,79,30.35,10.0,WNW,8.1,-,N/A,,Clear,290,2013-01-14 10:53:00
5:53 AM,-0.0,-5.1,79,30.38,10.0,West,6.9,-,N/A,,Clear,270,2013-01-14 11:53:00
6:53 AM,-0.9,-6.0,79,30.42,9.0,West,4.6,-,N/A,,Clear,260,2013-01-14 12:53:00
7:53 AM,-4.0,-8.0,83,30.43,10.0,WSW,3.5,-,N/A,,Clear,240,2013-01-14 13:53:00
8:53 AM,-0.9,-6.0,79,30.46,10.0,WSW,3.5,-,N/A,,Clear,250,2013-01-14 14:53:00
9:53 AM,3.0,-2.9,76,30.47,10.0,West,3.5,-,N/A,,Partly Cloudy,260,2013-01-14 15:53:00
10:53 AM,6.1,-2.0,69,30.48,10.0,West,4.6,-,N/A,,Clear,260,2013-01-14 16:53:00
11:53 AM,7.0,-2.0,67,30.46,10.0,SW,5.8,-,N/A,,Clear,230,2013-01-14 17:53:00
12:53 PM,8.1,-0.9,67,30.45,10.0,SW,10.4,-,0.00,,Clear,230,2013-01-14 18:53:00
1:53 PM,9.0,-0.9,64,30.43,10.0,WSW,6.9,-,0.00,,Clear,240,2013-01-14 19:53:00
2:53 PM,10.0,-0.0,64,30.42,10.0,South,8.1,-,N/A,,Clear,190,2013-01-14 20:53:00
3:53 PM,9.0,-0.0,67,30.42,10.0,SSW,5.8,-,N/A,,Clear,200,2013-01-14 21:53:00
4:53 PM,8.1,-0.0,70,30.43,10.0,South,5.8,-,N/A,,Mostly Cloudy,190,2013-01-14 22:53:00
5:53 PM,8.1,-0.0,70,30.43,10.0,South,5.8,-,N/A,,Overcast,180,2013-01-14 23:53:00
6:53 PM,8.1,-0.0,70,30.42,10.0,SSE,8.1,-,N/A,,Overcast,160,2013-01-15 00:53:00
7:53 PM,8.1,1.0,73,30.40,10.0,South,8.1,-,N/A,,Overcast,170,2013-01-15 01:53:00
8:53 PM,9.0,1.0,70,30.39,10.0,South,5.8,-,N/A,,Overcast,180,2013-01-15 02:53:00
9:53 PM,9.0,1.9,73,30.35,10.0,SE,6.9,-,N/A,,Overcast,140,2013-01-15 03:53:00
10:53 PM,10.0,3.0,73,30.33,10.0,SSE,5.8,-,N/A,,Overcast,150,2013-01-15 04:53:00
11:53 PM,6.1,1.0,80,30.32,10.0,SSE,4.6,-,N/A,,Partly Cloudy,150,2013-01-15 05:53:00